�������l�o���
Date,Time,MP-1(��Sv/h),MP-2(��Sv/h),MP-3(��Sv/h),MP-4(��Sv/h),MP-5(��Sv/h),MP-6(��Sv/h),MP-7(��Sv/h),MP-8(��Sv/h),����,����(m/s),���J
2019/01/12,00:00,0.788,1.182,0.821,1.510,1.075,0.450,0.798,0.760,���k��,6.7,��
2019/01/12,00:10,0.789,1.183,0.826,1.510,1.074,0.450,0.798,0.758,���k��,6.9,��
2019/01/12,00:20,0.787,1.183,0.825,1.513,1.074,0.450,0.798,0.757,���k��,6.6,��
2019/01/12,00:30,0.788,1.182,0.826,1.510,1.074,0.450,0.799,0.756,��,6.0,��
2019/01/12,00:40,0.789,1.182,0.825,1.511,1.075,0.450,0.801,0.758,��,6.5,��
2019/01/12,00:50,0.789,1.180,0.824,1.510,1.075,0.450,0.798,0.757,��,7.0,��
2019/01/12,01:00,0.789,1.181,0.823,1.507,1.074,0.450,0.801,0.757,��,6.9,��
2019/01/12,01:10,0.788,1.181,0.825,1.510,1.076,0.451,0.799,0.757,��,6.7,��
2019/01/12,01:20,0.789,1.182,0.825,1.510,1.073,0.451,0.799,0.758,��,7.3,��
2019/01/12,01:30,0.789,1.182,0.825,1.511,1.075,0.450,0.799,0.757,��,7.5,��
2019/01/12,01:40,0.787,1.181,0.825,1.512,1.073,0.449,0.799,0.758,��,7.7,��
2019/01/12,01:50,0.790,1.181,0.822,1.510,1.076,0.452,0.799,0.757,��,7.5,��
2019/01/12,02:00,0.789,1.180,0.826,1.511,1.075,0.449,0.800,0.757,��,7.2,��
2019/01/12,02:10,0.789,1.181,0.825,1.514,1.075,0.451,0.799,0.757,��,6.8,��
2019/01/12,02:20,0.788,1.180,0.829,1.507,1.076,0.451,0.798,0.757,��,7.1,��
2019/01/12,02:30,0.788,1.181,0.827,1.511,1.076,0.450,0.798,0.757,��,7.5,��
2019/01/12,02:40,0.787,1.181,0.828,1.511,1.077,0.451,0.800,0.758,��,6.9,��
2019/01/12,02:50,0.788,1.178,0.828,1.512,1.074,0.449,0.799,0.757,��,6.7,��
2019/01/12,03:00,0.789,1.181,0.826,1.512,1.076,0.450,0.801,0.757,��,7.0,��
2019/01/12,03:10,0.788,1.179,0.828,1.512,1.075,0.451,0.798,0.757,��,6.6,��
2019/01/12,03:20,0.787,1.181,0.828,1.511,1.074,0.451,0.799,0.759,��,6.1,��
2019/01/12,03:30,0.788,1.181,0.829,1.507,1.074,0.451,0.799,0.759,��,5.8,��
2019/01/12,03:40,0.789,1.178,0.827,1.511,1.071,0.451,0.798,0.758,��,5.9,��
2019/01/12,03:50,0.786,1.182,0.828,1.511,1.075,0.452,0.800,0.758,���k��,5.5,��
2019/01/12,04:00,0.788,1.180,0.826,1.508,1.075,0.451,0.799,0.757,���k��,5.2,��
2019/01/12,04:10,0.789,1.180,0.828,1.510,1.075,0.450,0.800,0.759,���k��,6.1,��
2019/01/12,04:20,0.788,1.179,0.828,1.510,1.075,0.451,0.799,0.757,���k��,6.1,��
2019/01/12,04:30,0.787,1.179,0.828,1.510,1.074,0.451,0.799,0.757,���k��,5.5,��
2019/01/12,04:40,0.789,1.181,0.827,1.509,1.075,0.450,0.800,0.758,���k��,5.5,��
2019/01/12,04:50,0.788,1.180,0.827,1.510,1.074,0.451,0.800,0.756,���k��,7.1,��
2019/01/12,05:00,0.787,1.182,0.827,1.509,1.075,0.452,0.800,0.757,�k��,6.0,��
2019/01/12,05:10,0.788,1.180,0.828,1.511,1.073,0.450,0.799,0.758,�k��,5.3,��
2019/01/12,05:20,0.789,1.179,0.827,1.509,1.078,0.451,0.800,0.756,�k��,4.1,��
2019/01/12,05:30,0.789,1.179,0.827,1.512,1.076,0.450,0.800,0.756,�k��,4.3,��
2019/01/12,05:40,0.788,1.183,0.827,1.511,1.073,0.449,0.796,0.757,�k��,5.7,��
2019/01/12,05:50,0.788,1.179,0.828,1.511,1.076,0.450,0.801,0.759,�k��,5.2,��
2019/01/12,06:00,0.788,1.178,0.827,1.508,1.074,0.450,0.801,0.757,�k��,6.1,��
2019/01/12,06:10,0.788,1.179,0.829,1.511,1.072,0.451,0.801,0.759,�k��,6.7,��
2019/01/12,06:20,0.788,1.179,0.828,1.514,1.074,0.452,0.798,0.758,�k��,6.8,��
2019/01/12,06:30,0.787,1.179,0.828,1.513,1.072,0.450,0.799,0.758,�k��,8.2,��
2019/01/12,06:40,0.787,1.182,0.827,1.511,1.077,0.451,0.800,0.757,�k�k��,6.3,��
2019/01/12,06:50,0.789,1.180,0.825,1.508,1.073,0.449,0.800,0.757,�k��,6.0,��
2019/01/12,07:00,0.788,1.178,0.826,1.510,1.074,0.451,0.799,0.758,�k��,5.9,��
2019/01/12,07:10,0.788,1.178,0.827,1.513,1.076,0.451,0.799,0.757,�k��,7.6,��
2019/01/12,07:20,0.789,1.177,0.828,1.509,1.074,0.452,0.798,0.759,�k��,6.9,��
2019/01/12,07:30,0.786,1.178,0.829,1.509,1.073,0.451,0.798,0.759,�k��,8.1,��
2019/01/12,07:40,0.788,1.178,0.828,1.509,1.074,0.449,0.799,0.757,�k��,7.4,��
2019/01/12,07:50,0.786,1.177,0.828,1.511,1.075,0.451,0.799,0.756,�k�k��,6.4,��
2019/01/12,08:00,0.785,1.176,0.826,1.509,1.074,0.451,0.799,0.757,�k��,5.5,��
2019/01/12,08:10,0.788,1.180,0.828,1.510,1.074,0.451,0.799,0.759,�k��,5.0,��
2019/01/12,08:20,0.791,1.175,0.828,1.510,1.077,0.451,0.800,0.759,�k��,5.1,��
2019/01/12,08:30,0.787,1.178,0.826,1.510,1.073,0.450,0.800,0.758,�k��,5.2,��
2019/01/12,08:40,0.789,1.179,0.827,1.511,1.074,0.449,0.799,0.758,�k��,3.6,��
2019/01/12,08:50,0.790,1.178,0.828,1.512,1.076,0.452,0.799,0.759,�k��,4.0,��
2019/01/12,09:00,0.790,1.178,0.828,1.511,1.075,0.450,0.800,0.759,�k��,4.6,��
2019/01/12,09:10,0.789,1.180,0.826,1.512,1.077,0.451,0.801,0.759,�k��,4.9,��
2019/01/12,09:20,0.791,1.179,0.827,1.512,1.076,0.451,0.799,0.759,�k��,4.3,��
2019/01/12,09:30,0.790,1.178,0.827,1.513,1.076,0.452,0.801,0.760,�k��,2.9,��
2019/01/12,09:40,0.791,1.181,0.830,1.512,1.075,0.451,0.802,0.759,�k�k��,4.7,��
2019/01/12,09:50,0.790,1.182,0.831,1.514,1.076,0.452,0.802,0.757,�k�k��,4.8,��
2019/01/12,10:00,0.791,1.180,0.831,1.512,1.078,0.452,0.800,0.759,�k�k��,4.4,��
2019/01/12,10:10,0.793,1.179,0.831,1.509,1.075,0.452,0.801,0.759,�k�k��,3.9,��
2019/01/12,10:20,0.792,1.177,0.828,1.510,1.077,0.452,0.799,0.760,�k�k��,3.8,��
2019/01/12,10:30,0.791,1.177,0.825,1.512,1.076,0.452,0.800,0.759,�k�k��,3.4,��
2019/01/12,10:40,0.792,1.179,0.831,1.512,1.078,0.451,0.798,0.758,�k��,6.0,��
2019/01/12,10:50,0.792,1.176,0.830,1.512,1.075,0.452,0.799,0.760,�k��,7.3,��
2019/01/12,11:00,0.792,1.176,0.830,1.514,1.077,0.453,0.800,0.759,�k�k��,6.4,��
2019/01/12,11:10,0.791,1.176,0.829,1.514,1.080,0.452,0.802,0.759,�k��,5.5,��
2019/01/12,11:20,0.791,1.176,0.829,1.512,1.077,0.454,0.799,0.760,�k�k��,5.5,��
2019/01/12,11:30,0.792,1.177,0.830,1.513,1.077,0.452,0.798,0.760,�k,4.5,��
2019/01/12,11:40,0.792,1.174,0.830,1.514,1.079,0.452,0.799,0.760,�k,3.8,��
2019/01/12,11:50,0.791,1.177,0.830,1.512,1.078,0.454,0.798,0.760,�k�k��,3.6,��
2019/01/12,12:00,0.794,1.178,0.831,1.514,1.079,0.453,0.800,0.757,�k�k��,3.2,��
2019/01/12,12:10,0.795,1.182,0.832,1.514,1.082,0.452,0.799,0.761,�k��,4.3,��
2019/01/12,12:20,0.792,1.178,0.830,1.515,1.079,0.453,0.799,0.759,�k��,5.3,��
2019/01/12,12:30,0.791,1.178,0.829,1.514,1.080,0.453,0.800,0.759,�k��,4.9,��
2019/01/12,12:40,0.793,1.176,0.832,1.514,1.084,0.453,0.800,0.760,�k��,5.2,��
2019/01/12,12:50,0.792,1.178,0.830,1.515,1.080,0.451,0.799,0.761,�k��,5.8,��
2019/01/12,13:00,0.793,1.176,0.831,1.515,1.080,0.452,0.799,0.760,�k�k��,6.1,��
2019/01/12,13:10,0.793,1.178,0.830,1.511,1.081,0.452,0.800,0.759,�k��,5.8,��
2019/01/12,13:20,0.795,1.181,0.828,1.512,1.079,0.451,0.800,0.759,�k�k��,5.3,��
2019/01/12,13:30,0.794,1.183,0.830,1.514,1.079,0.453,0.799,0.760,�k�k��,5.3,��
2019/01/12,13:40,0.795,1.182,0.833,1.515,1.081,0.453,0.801,0.759,�k�k��,5.1,��
2019/01/12,13:50,0.794,1.182,0.830,1.515,1.081,0.452,0.800,0.762,�k�k��,5.1,��
2019/01/12,14:00,0.792,1.181,0.830,1.513,1.080,0.452,0.801,0.759,�k�k��,4.6,��
2019/01/12,14:10,0.794,1.180,0.831,1.512,1.079,0.453,0.800,0.759,�k�k��,5.0,��
2019/01/12,14:20,0.793,1.179,0.831,1.511,1.080,0.454,0.800,0.760,�k�k��,5.0,��
2019/01/12,14:30,0.792,1.180,0.831,1.513,1.080,0.454,0.803,0.758,�k�k��,5.4,��
2019/01/12,14:40,0.793,1.178,0.832,1.512,1.080,0.453,0.802,0.760,�k�k��,5.2,��
2019/01/12,14:50,0.793,1.180,0.831,1.514,1.080,0.453,0.801,0.758,�k�k��,4.4,��
2019/01/12,15:00,0.794,1.181,0.831,1.513,1.078,0.453,0.802,0.759,�k,4.3,��
2019/01/12,15:10,0.793,1.182,0.831,1.512,1.080,0.454,0.799,0.760,�k,4.8,��
2019/01/12,15:20,0.795,1.182,0.829,1.515,1.080,0.453,0.799,0.761,�k,4.5,��
2019/01/12,15:30,0.792,1.183,0.830,1.514,1.078,0.454,0.801,0.759,�k,4.3,��
2019/01/12,15:40,0.794,1.183,0.830,1.515,1.080,0.453,0.802,0.757,�k�k��,4.2,��
2019/01/12,15:50,0.795,1.181,0.831,1.516,1.081,0.453,0.802,0.759,�k,5.1,��
2019/01/12,16:00,0.793,1.183,0.833,1.514,1.079,0.454,0.802,0.759,�k,4.9,��
2019/01/12,16:10,0.791,1.184,0.831,1.513,1.081,0.452,0.800,0.759,�k,5.0,��
2019/01/12,16:20,0.792,1.182,0.831,1.517,1.079,0.455,0.801,0.759,�k,5.1,��
2019/01/12,16:30,0.794,1.183,0.831,1.513,1.081,0.453,0.802,0.760,�k,4.8,��
2019/01/12,16:40,0.790,1.185,0.831,1.513,1.080,0.453,0.803,0.759,�k,4.8,��
2019/01/12,16:50,0.795,1.184,0.829,1.514,1.082,0.453,0.802,0.759,�k,4.7,��
2019/01/12,17:00,0.795,1.184,0.831,1.514,1.082,0.452,0.801,0.758,�k,4.8,��
2019/01/12,17:10,0.790,1.186,0.832,1.513,1.080,0.452,0.801,0.758,�k,4.6,��
2019/01/12,17:20,0.792,1.183,0.831,1.515,1.080,0.453,0.802,0.760,�k,4.2,��
2019/01/12,17:30,0.792,1.184,0.829,1.510,1.081,0.451,0.803,0.759,�k,4.1,��
2019/01/12,17:40,0.791,1.185,0.831,1.513,1.080,0.453,0.801,0.759,�k,4.3,��
2019/01/12,17:50,0.793,1.184,0.830,1.511,1.080,0.452,0.801,0.760,�k�k��,4.1,��
2019/01/12,18:00,0.792,1.184,0.830,1.514,1.080,0.451,0.802,0.759,�k�k��,4.3,��
2019/01/12,18:10,0.791,1.184,0.830,1.512,1.079,0.453,0.800,0.758,�k�k��,4.4,��
2019/01/12,18:20,0.791,1.184,0.828,1.512,1.078,0.452,0.802,0.758,�k�k��,4.5,��
2019/01/12,18:30,0.792,1.184,0.830,1.512,1.079,0.451,0.801,0.757,�k��,4.6,��
2019/01/12,18:40,0.790,1.185,0.829,1.511,1.081,0.453,0.803,0.757,�k�k��,4.5,��
2019/01/12,18:50,0.791,1.184,0.829,1.514,1.079,0.451,0.801,0.758,�k��,4.0,��
2019/01/12,19:00,0.791,1.185,0.830,1.513,1.079,0.451,0.802,0.759,�k��,4.5,��
2019/01/12,19:10,0.790,1.183,0.830,1.514,1.078,0.451,0.801,0.759,�k�k��,4.4,��
2019/01/12,19:20,0.790,1.184,0.829,1.517,1.078,0.451,0.800,0.759,�k�k��,4.5,��
2019/01/12,19:30,0.792,1.183,0.830,1.513,1.079,0.452,0.801,0.758,�k��,4.5,��
2019/01/12,19:40,0.791,1.185,0.831,1.511,1.080,0.451,0.801,0.757,�k��,4.4,��
2019/01/12,19:50,0.790,1.185,0.830,1.512,1.080,0.452,0.801,0.758,�k��,5.2,��
2019/01/12,20:00,0.791,1.184,0.831,1.514,1.079,0.453,0.800,0.758,�k�k��,5.0,��
2019/01/12,20:10,0.793,1.184,0.830,1.514,1.080,0.453,0.802,0.759,�k�k��,5.3,��
2019/01/12,20:20,0.791,1.183,0.831,1.514,1.077,0.453,0.802,0.759,�k�k��,5.3,��
2019/01/12,20:30,0.790,1.182,0.830,1.512,1.080,0.451,0.801,0.758,�k�k��,5.4,��
2019/01/12,20:40,0.791,1.184,0.829,1.513,1.077,0.451,0.801,0.758,�k�k��,4.8,��
2019/01/12,20:50,0.793,1.183,0.830,1.515,1.080,0.453,0.801,0.758,�k�k��,5.1,��
2019/01/12,21:00,0.793,1.183,0.830,1.513,1.079,0.452,0.801,0.758,�k�k��,5.0,��
2019/01/12,21:10,0.791,1.180,0.828,1.512,1.080,0.452,0.803,0.758,�k�k��,5.0,��
2019/01/12,21:20,0.792,1.183,0.831,1.513,1.080,0.453,0.801,0.759,�k�k��,4.7,��
2019/01/12,21:30,0.792,1.184,0.831,1.512,1.080,0.451,0.803,0.758,�k�k��,4.9,��
2019/01/12,21:40,0.793,1.182,0.831,1.513,1.077,0.452,0.801,0.760,�k�k��,5.1,��
2019/01/12,21:50,0.793,1.183,0.830,1.513,1.078,0.452,0.800,0.757,�k�k��,5.4,��
2019/01/12,22:00,0.790,1.181,0.830,1.511,1.080,0.452,0.800,0.758,�k�k��,5.9,��
2019/01/12,22:10,0.791,1.185,0.830,1.511,1.079,0.453,0.801,0.759,�k�k��,7.3,��
2019/01/12,22:20,0.792,1.182,0.830,1.513,1.080,0.451,0.802,0.759,�k�k��,7.1,��
2019/01/12,22:30,0.791,1.183,0.831,1.513,1.078,0.451,0.801,0.759,�k�k��,8.5,��
2019/01/12,22:40,0.792,1.184,0.832,1.513,1.079,0.452,0.802,0.758,�k�k��,8.4,��
2019/01/12,22:50,0.792,1.183,0.832,1.514,1.080,0.452,0.801,0.759,�k�k��,8.0,��
2019/01/12,23:00,0.793,1.184,0.829,1.513,1.081,0.452,0.801,0.760,�k��,7.6,��
2019/01/12,23:10,0.790,1.184,0.830,1.515,1.079,0.451,0.800,0.760,�k�k��,7.7,��
2019/01/12,23:20,0.791,1.184,0.830,1.515,1.080,0.454,0.801,0.759,�k��,7.3,��
2019/01/12,23:30,0.789,1.184,0.829,1.513,1.079,0.452,0.800,0.759,�k��,6.8,��
2019/01/12,23:40,0.792,1.184,0.830,1.512,1.079,0.450,0.801,0.759,�k��,7.4,��
2019/01/12,23:50,0.792,1.184,0.829,1.514,1.079,0.451,0.801,0.757,�k��,7.4,��
